STARLINK-1598, 46160

Orbit data source: Space-Track

STARLINK-1598, 46160 is a payload satellite owned by SpaceX/Seattle (US) in LEO that was launched on Tue, 18 Aug 2020 UTC via an FALCON 9 launch vehicle from the Air Force Eastern Test Range (AFETR). Payload-class satellites include a variety of spacecraft equipped with specific instruments for various scientific and technological missions. These include communications satellites like Starlink; space stations such as the ISS; scientific satellites like the Hubble; Earth observation satellites from companies like Planet Labs, Umbra, and HawkEye 360; GPS; miniature CubeSats for education and research; and military/defense satellites.

Loading next visibility...
Identifier
46160, 2020-057AV
Orbit
LEO
Country
Flag of USUS
Related business
Manufacturer
SpaceX/Seattle
Mission
Partially operational Commercial Communications
Bus & Motor
STARLINK, Unknown motor
Mass
260 kg wet, ~248 kg dry
Launch date (UTC)
2020-08-18 (6 years ago)
Launch vehicle
FALCON 9
Launch site
Air Force Eastern Test Range (AFETR)
Object type
Payload
Rocket body
Debris
Shape & HBR
Box + 1 Pan, 10.1 m
Radar Cross Section
13.562 m², Large (>1 m²)

Expand to show TLE details & history
Last TLE update: 5 hours ago

TLE from 5 hours ago
0 STARLINK-1598
1 46160U 20057AV  26123.11992764  .00087844  00000-0  82820-3 0  9998
2 46160  53.0481  19.2509 0006512  89.2371 270.9390 15.66327768316269
Epoch: 2026-05-03T02:52Z
TLE epoch observation values (Epoch: 2026-05-03T02:52:41.748Z)
Latitude
-0.00001°
Longitude
115.0489°
Altitude
370.255 km
Speed
7.689 km/s
True Right ascension
01h 17m 00s
True Declination
0° 00' 00"
Sunlit
Object was in daylight at epoch
Visualization orbit readout
Latitude
Unknown
Longitude
Unknown
Altitude
Unknown
Speed
Unknown
Apparent Right ascension
Unknown
Apparent Declination
Unknown
Sunlit
N/A
Visualization observer readout
Local Sidereal Time
15:49:04
Azimuth
Unknown
Elevation
Unknown
Doppler factor
Unknown
Orbital elements
Apogee altitude
374.096 km
Perigee altitude
365.307 km
Semi-major axis
6,747.838 km
Eccentricity
0.00065
Inclination
53.0481°
RAAN
19.2509°
Arg. of periapsis
89.2371°
True anomaly
270.86439°
Mean anomaly
270.939°
Eccentric anomaly
270.90169°
Mean motion
3.91558 °/min
Orbital period
91.94 mins
BSTAR
0.0008282
Loading maneuver chart data...
Computing Atmospheric mass density...
Loading historical data...
Loading historical data...
Loading historical data...
Loading historical data...
Loading historical data...
Loading historical data...
Loading historical data...

Documentation

Showing up to 5 results
|